This demonstration page uses our WeatherBlox Daily Observations layout. Learn more.

Left ArrowRight Arrow

47.50024, -111.30081

Hourly Observations for July 15, 2020

Temp ( °F °C ) Dew Point ( °F °C ) Humidity (%) Winds ( mph kmh ) Pressure ( in mb ) Visibility ( mi km ) Precip ( " mm )
12:53 am 00:53 Clear 50 10 35 1.7 57 57 SSW 9 15 30.01 1016 10 16 0.00 0.00
1:53 am 01:53 Clear 50 10 35 1.7 57 57 SSW 9 15 30.01 1016 10 16 0.00 0.00
2:53 am 02:53 Clear 49 9.4 34 1.1 56 56 SSW 10 17 29.99 1016 10 16 0.00 0.00
3:53 am 03:53 Clear 49 9.4 34 1.1 56 56 SSW 10 17 29.99 1016 10 16 0.00 0.00
4:53 am 04:53 Clear 49 9.4 34 1.1 56 56 SSW 13 20 29.98 1015 10 16 0.00 0.00
5:53 am 05:53 Sunny 51 10.6 34 1.1 52 52 SSW 13 20 29.98 1015 10 16 0.00 0.00
6:53 am 06:53 Sunny 55 12.8 36 2.2 49 49 SSW 12 19 29.97 1015 10 16 0.00 0.00
7:53 am 07:53 Sunny 58 14.4 37 2.8 46 46 SSW 12 19 29.98 1015 10 16 0.00 0.00
8:53 am 08:53 Sunny 65 18.3 40 4.4 40 40 SW 17 28 29.98 1015 10 16 0.00 0.00
9:53 am 09:53 Sunny 69 20.6 39 3.9 33 33 SSW 16 26 29.98 1015 10 16 0.00 0.00
10:53 am 10:53 Sunny 74 23.3 39 3.9 28 28 W 15 24 29.97 1015 10 16 0.00 0.00
11:53 am 11:53 Sunny 76 24.4 39 3.9 26 26 WSW 18 30 29.95 1014 10 16 0.00 0.00
12:46 pm 12:46 Sunny 79 26.1 38 3.3 23 23 W 17 28 29.77 1008 10 16 0.00 0.00
12:53 pm 12:53 Sunny 78 25.6 38 3.3 24 24 W 16 26 29.96 1014 10 16 0.00 0.00
1:53 pm 13:53 Sunny 79 26.1 38 3.3 23 23 W 20 31 29.94 1014 10 16 0.00 0.00
2:53 pm 14:53 Mostly Sunny 81 27.2 39 3.9 22 22 W 12 19 29.94 1014 10 16 0.00 0.00
3:53 pm 15:53 Partly Cloudy 81 27.2 39 3.9 22 22 W 13 20 29.93 1014 10 16 0.00 0.00
4:53 pm 16:53 Sunny 82 27.8 38 3.3 21 21 WNW 14 22 29.93 1013 10 16 0.00 0.00
5:53 pm 17:53 Sunny 81 27.2 38 3.3 21 21 WSW 7 11 29.92 1013 10 16 0.00 0.00
6:53 pm 18:53 Mostly Sunny 79 26.1 38 3.3 23 23 WNW 7 11 29.91 1013 10 16 0.00 0.00
7:53 pm 19:53 Sunny 73 22.8 44 6.7 35 35 N 6 9 29.92 1013 10 16 0.00 0.00
8:53 pm 20:53 Sunny 70 21.1 46 7.8 42 42 NNE 6 9 29.92 1013 10 16 0.00 0.00
9:53 pm 21:53 Mostly Cloudy 66 18.9 44 6.7 45 45 NE 6 9 29.94 1014 10 16 0.00 0.00
10:53 pm 22:53 Clear 69 20.6 43 6.1 39 39 Calm 29.92 1013 10 16 0.00 0.00
11:53 pm 23:53 Clear 56 13.3 44 6.7 65 65 SW 10 17 29.95 1014 10 16 0.00 0.00

Powered by AerisWeather